Location: Degersen
(52.2871°N, 9.5716°E)
Time: 06:01:37
(UTC+00:00)

Cosmos 1484 Rocket - Pass Details

Date: 20 January 2026
Orbit: 439 x 466 km, 97.6° (Epoch: 18 February)

Event Time Altitude Azimuth Distance (km) Brightness Sun altitude
Rises 05:30:41 0° 13° (NNE) 2,463 6.2 -16.1°
Reaches altitude 10° 05:32:43 10° 13° (NNE) 1,591 5.2 -15.8°
Maximum altitude 05:36:07 87° 284° (WNW) 461 2.3 -15.3°
Drops below altitude 10° 05:39:33 10° 196° (SSW) 1,594 5.2 -14.8°
Sets 05:41:35 0° 196° (SSW) 2,468 6.1 -14.5°
